Temperature
20 20 21 21 21 20 19 18 17 18 17 18 17 16 18 19 19 19 18 18 18 17 16 15 14 13 12 12 12 11 11 10 10 10 10 10 9 9 9 9 9 8 8 8
21 22 21 21 21 21 20 19 18 19 18 17 17 18 18 18 18 18 19 18 18 17 16 15 14 13 12 12 11 11 10 10 10 10 10 9 9 9 9 9 8 8 8 8
19 20 21 21 22 21 21 20 19 19 19 18 17 17 18 19 19 19 19 18 17 16 15 14 13 12 12 11 11 11 10 10 10 10 10 9 9 9 9 8 8 8 8 8
18 20 21 20 20 21 21 20 19 19 18 16 18 20 20 20 20 19 19 18 17 16 15 14 13 12 12 11 11 10 10 10 10 9 9 9 9 9 9 8 8 8 8 8
16 19 20 20 20 20 20 21 19 18 18 18 17 18 19 20 20 19 18 17 16 15 14 14 13 12 12 11 11 10 10 10 10 9 9 9 9 9 9 8 8 8 8 8
16 19 20 20 21 21 21 20 19 18 17 16 16 15 17 21 20 19 18 17 16 15 14 14 13 12 11 11 11 10 10 10 10 9 9 9 9 9 9 8 8 8 8 8
16 18 18 19 20 21 20 19 21 21 20 17 17 19 21 21 20 19 18 17 16 15 14 14 13 12 11 11 11 10 10 10 10 9 9 9 9 9 8 8 8 8 8 8
15 18 19 20 20 19 20 23 23 23 22 21 22 22 21 21 20 19 18 17 16 15 14 14 13 12 12 11 11 10 10 10 10 9 9 9 9 9 9 8 8 8 8 8
16 18 20 20 21 23 23 24 24 24 23 22 22 22 21 21 20 19 18 17 16 15 14 14 13 12 12 11 11 10 10 10 10 10 9 9 9 9 9 8 8 8 8 7
16 17 20 22 23 24 24 24 25 25 24 23 22 22 21 21 20 19 18 17 16 15 15 14 13 12 12 11 11 10 10 10 10 10 10 9 9 9 8 8 8 8 8 7
17 17 20 23 24 24 24 24 24 24 24 23 23 22 22 21 20 19 18 17 16 16 15 14 13 13 12 11 11 10 10 10 10 10 9 9 9 9 9 8 8 8 8 7
17 19 18 20 22 22 23 24 24 23 23 23 22 22 22 21 20 19 18 17 16 16 15 14 14 13 12 11 11 10 10 10 10 10 9 9 9 9 9 9 8 8 8 7
17 19 18 19 19 20 21 22 22 22 22 22 22 21 21 21 20 19 18 17 17 16 15 14 14 13 12 11 11 10 10 10 10 10 9 9 9 9 9 9 9 8 8 8
16 17 16 16 17 18 20 21 21 21 21 20 21 20 20 20 19 19 18 18 17 16 15 14 14 13 12 12 11 11 10 10 10 10 9 9 9 9 9 8 8 9 8 8
14 14 14 15 16 17 18 19 19 18 19 19 19 19 19 19 19 18 18 17 16 16 15 14 14 13 12 12 11 11 10 10 10 10 10 9 9 9 9 9 8 8 8 8
14 15 15 15 15 15 16 16 16 16 17 17 18 18 18 18 17 17 17 17 16 16 15 14 14 13 12 12 11 11 10 10 10 10 10 10 9 9 9 9 9 8 8 8
13 12 13 13 13 14 14 14 15 15 15 16 16 16 16 16 17 17 16 16 15 15 15 14 14 13 12 12 11 11 10 10 10 10 9 9 9 9 9 9 9 8 8 8
12 12 12 12 12 13 13 14 14 14 14 15 15 15 15 15 15 15 15 15 15 15 14 14 13 13 12 11 11 11 10 10 10 10 9 9 10 9 9 9 9 8 8 8
12 12 12 12 12 13 13 13 13 14 14 14 14 14 14 14 14 14 14 14 14 14 14 14 13 13 12 11 11 10 10 10 10 9 9 9 10 9 9 9 9 8 8 8
12 12 12 12 12 12 12 12 12 13 13 13 13 13 13 13 13 13 13 13 13 13 13 13 13 12 12 11 11 10 10 10 9 9 9 9 9 9 9 9 9 8 8 8
11 11 11 11 11 11 11 11 11 11 11 11 11 11 12 12 12 12 12 12 13 13 13 13 12 12 11 11 11 10 10 9 9 9 9 9 9 9 9 9 8 8 8 8
11 11 11 10 10 10 10 10 10 10 10 10 10 10 11 11 11 11 12 12 12 12 12 12 12 12 11 11 10 10 10 9 9 9 9 9 9 9 9 9 8 8 8 8
10 10 10 10 10 9 10 10 10 10 10 10 10 10 10 10 10 10 10 11 11 12 12 12 11 11 10 10 10 9 9 9 9 8 8 9 9 9 9 8 8 8 8 8
9 9 9 9 9 9 9 9 9 9 9 9 9 9 9 9 9 10 10 10 10 11 11 11 10 10 10 9 9 9 9 8 8 8 8 8 8 8 8 8 8 8 8 8
9 9 9 9 9 9 9 9 9 9 9 9 9 9 9 9 8 9 9 9 10 10 10 10 10 10 9 9 9 8 8 8 8 8 8 8 8 8 8 8 8 8 8 8
9 9 9 9 9 9 9 9 8 8 8 8 8 8 8 8 8 8 8 8 9 9 9 9 9 9 8 8 8 8 7 7 7 7 7 8 8 8 8 8 8 8 8 8
9 9 9 9 9 9 8 8 8 8 8 8 8 8 8 8 7 7 8 8 8 8 8 8 8 8 7 7 7 7 7 7 7 7 7 7 7 7 8 8 8 8 8 8
Wind_Speed
7 6 3 5 7 6 7 8 9 9 8 10 9 9 7 5 5 6 6 6 7 6 5 5 6 6 6 7 7 6 6 7 8 8 8 8 9 9 9 10 10 10 10 10
4 3 3 5 7 6 6 5 6 5 8 8 4 4 4 6 8 8 8 8 8 7 7 7 7 7 6 7 7 5 6 8 8 8 8 9 9 10 10 10 10 10 10 11
4 5 3 5 5 5 5 5 8 8 8 3 4 8 9 9 9 10 10 9 9 8 8 7 7 6 7 7 6 6 7 8 8 8 9 9 10 10 10 10 10 10 10 10
2 1 4 9 5 5 5 5 7 7 6 7 8 6 5 7 10 10 10 9 9 8 7 6 6 5 6 6 6 6 7 8 8 8 9 10 10 10 10 9 9 10 11 11
5 4 6 9 4 6 6 6 7 8 7 5 4 4 4 8 9 10 10 9 8 8 7 6 6 6 5 6 6 7 8 8 8 8 9 10 11 11 10 9 10 10 10 11
5 5 6 10 4 5 5 5 7 9 10 8 8 2 7 8 10 10 9 7 7 6 5 6 7 5 5 7 7 8 8 8 8 8 9 10 11 11 10 9 10 10 11 10
5 5 8 8 3 7 4 9 7 11 11 12 11 10 6 5 9 10 9 9 8 7 6 7 6 4 6 7 8 8 8 8 8 9 9 10 10 9 10 9 10 10 11 10
5 3 8 4 9 10 11 5 6 11 12 13 13 10 7 7 9 10 9 9 8 7 8 7 6 5 7 8 8 7 7 8 9 9 9 8 9 9 9 8 9 9 9 10
8 8 7 5 9 8 5 6 7 10 12 14 13 11 10 9 10 10 10 9 8 8 8 7 6 7 8 8 7 6 6 8 9 9 9 8 8 9 9 7 7 8 7 8
4 9 8 8 8 7 8 9 9 10 11 13 13 13 12 10 10 10 10 9 7 8 8 8 7 7 9 8 6 6 7 8 8 8 9 9 7 7 7 7 7 7 8 8
5 9 10 9 6 7 6 7 7 7 9 13 15 13 12 11 11 10 9 7 7 8 9 10 8 8 8 7 5 6 7 8 8 7 8 8 8 7 8 8 8 8 8 8
7 7 4 7 8 8 5 6 7 7 8 8 11 13 11 11 10 9 9 7 8 9 9 9 7 8 7 6 5 5 6 7 6 7 7 7 8 9 9 10 12 12 12 11
7 6 3 6 8 9 5 6 4 5 7 8 8 9 9 8 7 7 8 9 10 10 10 8 7 8 7 6 5 6 7 7 7 7 7 7 7 7 9 10 10 10 10 10
8 3 5 8 8 10 9 8 6 4 4 3 2 2 3 4 4 7 9 10 9 8 8 7 7 8 7 5 5 6 7 8 7 7 7 7 7 7 7 8 10 8 8 9
14 10 6 6 11 14 14 14 14 12 10 8 4 1 1 3 5 8 8 6 6 7 8 7 8 9 6 5 6 6 6 6 6 6 6 7 7 6 6 7 7 8 8 7
8 12 14 16 16 16 16 16 14 13 11 9 6 3 2 3 4 5 5 5 6 8 9 8 9 8 5 5 6 5 6 9 8 6 6 6 6 6 6 6 7 7 7 7
15 16 14 14 14 13 13 11 10 10 10 10 7 5 2 2 3 5 6 6 8 9 8 8 9 7 5 6 6 5 5 6 9 7 6 6 6 6 6 6 7 7 7 7
8 7 7 7 8 10 12 12 11 11 9 8 8 6 5 4 6 8 7 5 6 8 9 9 8 7 6 6 6 5 4 5 5 6 6 5 5 5 5 6 7 8 7 7
9 9 9 10 9 9 9 10 10 9 8 8 7 6 6 6 7 7 6 5 8 11 9 8 10 9 7 7 6 4 4 5 6 5 5 6 6 5 5 5 6 6 6 6
9 9 9 10 10 9 10 10 10 9 9 8 8 8 8 8 8 7 6 8 10 9 7 6 7 8 8 7 6 4 4 5 5 5 5 4 4 5 5 5 6 6 6 6
8 8 9 10 10 9 9 9 8 9 9 8 7 8 9 10 9 7 6 9 10 8 8 9 7 7 6 6 6 4 4 4 4 4 4 4 4 4 5 5 5 5 5 5
6 7 8 9 9 9 9 8 7 7 8 8 8 8 9 10 11 10 9 9 9 8 6 6 6 8 8 7 5 5 4 4 4 3 3 3 3 4 4 4 5 5 5 5
6 7 8 8 8 8 9 7 7 6 7 7 8 9 9 9 8 8 11 9 8 9 6 6 7 9 9 6 5 5 4 3 3 3 3 3 3 3 3 4 4 5 5 5
7 8 8 8 7 6 7 7 7 6 7 7 7 8 7 8 8 8 8 12 12 10 6 6 8 9 8 4 4 4 3 3 2 2 2 2 2 2 2 3 4 5 5 6
8 8 8 8 7 6 7 8 8 7 7 7 9 9 8 6 7 10 11 11 11 9 6 5 7 7 5 4 3 3 2 2 1 1 1 2 2 2 2 3 3 4 5 5
8 8 8 8 8 7 7 6 5 6 6 6 7 8 8 8 9 9 9 10 10 7 5 3 3 4 3 3 2 2 1 1 0 1 1 2 3 3 3 3 4 4 4 5
9 8 6 7 8 7 6 6 7 7 7 7 7 8 9 9 9 10 10 8 7 5 3 2 2 3 3 3 3 2 2 1 1 1 2 2 2 3 3 4 3 4 4 4
Wind_Direction
237 248 244 254 253 190 191 194 192 230 230 246 230 217 215 201 182 182 198 212 223 233 249 264 276 280 277 279 282 282 284 283 280 283 285 286 287 286 286 285 284 278 279 278
277 270 266 267 265 218 209 199 211 237 255 250 229 168 188 193 187 199 215 226 234 239 247 255 262 270 276 276 280 284 280 281 284 289 290 289 289 290 290 289 287 285 281 280
254 303 359 290 253 209 214 205 181 207 238 206 179 201 211 206 198 208 220 228 232 236 238 245 252 255 262 268 280 284 280 283 287 289 290 290 293 295 291 290 288 288 285 282
179 71 242 249 259 207 205 227 209 224 234 202 206 214 224 202 199 213 221 225 231 232 236 243 246 252 260 270 277 280 282 285 287 288 290 292 294 292 290 289 288 287 286 283
141 186 270 292 244 174 175 252 215 209 215 182 99 52 304 225 205 211 214 216 221 222 223 235 247 251 260 273 278 280 281 282 284 287 290 294 295 293 292 292 293 290 286 284
140 164 226 249 243 158 114 279 226 192 192 164 126 160 257 232 204 215 219 217 218 218 219 237 247 240 248 266 275 275 275 279 283 285 286 289 289 290 291 290 290 292 289 287
166 203 253 250 179 128 158 244 219 191 188 170 182 204 224 207 197 205 210 214 212 209 219 233 237 224 244 261 265 266 274 280 284 286 285 285 285 287 292 294 295 294 293 293
149 183 258 224 146 179 215 227 198 194 189 188 209 223 228 214 207 205 208 213 206 208 229 238 228 219 244 258 260 269 277 281 286 290 290 292 290 295 296 294 298 299 298 300
191 217 245 224 214 231 204 213 213 198 199 197 207 221 220 216 213 211 210 211 204 207 228 244 233 218 238 254 263 274 279 284 290 296 294 290 290 296 301 299 298 299 298 298
252 273 270 263 254 250 219 222 226 207 197 189 202 214 214 213 212 213 214 211 204 203 223 242 240 230 235 253 265 268 277 287 293 299 302 303 298 291 293 296 299 300 297 296
264 282 308 313 290 272 254 246 245 224 204 201 205 212 208 210 211 210 210 207 198 205 220 236 242 245 247 250 252 262 276 286 293 294 296 303 304 292 286 278 270 278 286 284
245 256 243 281 309 327 297 264 244 225 223 217 208 213 208 211 209 202 204 202 206 214 223 236 241 249 254 249 238 252 277 288 292 297 300 302 307 310 291 277 282 272 259 261
269 296 297 302 335 347 323 300 277 227 223 228 224 214 207 208 202 196 202 205 213 218 222 230 237 248 255 248 235 244 261 278 287 291 296 303 305 307 313 316 309 298 286 280
342 344 15 2 348 353 357 350 353 350 328 302 259 212 194 194 188 201 215 217 216 218 224 229 235 248 252 242 238 250 262 274 281 284 289 294 297 297 297 305 314 316 307 295
24 42 47 15 22 22 23 27 27 16 6 2 4 17 193 195 209 224 229 218 209 220 231 232 238 251 251 236 241 255 267 277 282 286 287 288 292 295 298 300 302 305 309 308
24 39 35 32 27 21 24 26 22 11 6 2 359 343 285 238 242 246 235 203 205 228 234 231 239 246 240 232 243 258 268 280 289 289 293 297 300 304 308 309 308 308 309 309
43 31 19 18 15 14 16 15 13 8 8 5 348 332 331 311 286 275 265 240 229 238 237 232 238 239 229 227 235 252 267 285 294 294 290 292 298 303 305 305 306 307 305 300
55 42 25 14 7 4 3 4 3 1 0 354 355 357 345 308 277 272 272 267 253 255 250 237 231 227 224 227 232 242 258 274 283 287 291 295 298 299 302 304 306 309 310 313
32 24 14 9 3 359 354 350 346 343 345 353 355 346 326 309 299 297 298 283 267 266 263 236 223 218 221 226 229 234 252 270 281 285 290 296 302 304 307 310 312 315 316 318
18 11 4 358 356 353 346 340 338 340 342 345 345 341 334 321 309 299 287 272 263 258 256 236 217 215 220 225 226 229 245 262 276 288 295 303 308 310 312 315 320 323 325 323
358 354 350 346 340 338 337 334 335 335 333 339 340 328 318 313 308 295 283 285 282 268 256 237 222 219 216 211 216 223 237 253 267 281 292 301 307 310 315 322 327 329 328 326
331 331 330 330 331 329 326 326 328 330 334 336 334 330 327 324 321 312 290 275 283 282 269 244 230 220 211 206 209 219 231 245 260 273 284 296 303 308 316 326 332 334 332 331
310 310 313 315 314 307 311 317 324 327 325 323 321 320 317 310 308 306 306 301 300 288 275 251 231 217 208 203 207 215 224 236 256 272 283 295 299 302 312 326 336 335 334 336
297 298 298 299 304 309 310 306 311 310 307 306 303 303 305 312 314 305 296 299 299 289 279 253 229 216 199 199 201 209 218 230 246 271 291 309 318 319 325 337 343 341 341 341
286 289 292 299 300 292 285 290 301 304 309 311 309 309 306 294 293 305 308 307 301 292 286 256 223 200 189 189 191 199 205 217 242 275 306 330 334 335 345 355 357 349 346 347
283 283 280 274 269 270 273 275 277 281 287 295 300 302 306 308 306 309 310 306 299 288 280 258 210 181 179 175 163 164 165 154 98 10 353 348 348 353 1 5 5 359 350 351
285 282 280 284 282 270 265 263 266 272 273 274 282 290 300 308 312 315 314 310 304 291 278 247 197 170 157 144 129 116 100 73 46 31 14 6 3 4 4 8 11 7 3 4
Height
1503 1499 1498 1498 1496 1499 1504 1508 1514 1507 1505 1495 1490 1490 1491 1493 1495 1498 1499 1501 1502 1502 1502 1501 1500 1499 1497 1496 1494 1492 1489 1487 1485 1482 1479 1476 1473 1470 1466 1463 1460 1457 1454 1452
1500 1494 1496 1497 1492 1492 1495 1497 1500 1499 1497 1487 1486 1488 1490 1492 1493 1495 1497 1498 1499 1500 1499 1498 1497 1496 1494 1492 1490 1488 1486 1483 1481 1478 1475 1471 1468 1464 1461 1457 1454 1451 1448 1446
1508 1500 1496 1502 1490 1488 1489 1489 1493 1496 1490 1485 1486 1486 1487 1489 1491 1492 1494 1496 1497 1497 1496 1495 1494 1492 1491 1489 1487 1484 1482 1479 1477 1473 1470 1467 1463 1459 1455 1452 1448 1445 1443 1440
1509 1504 1510 1498 1482 1482 1484 1484 1484 1484 1483 1482 1482 1484 1485 1487 1488 1490 1492 1493 1493 1493 1493 1492 1490 1489 1487 1485 1483 1481 1478 1476 1473 1469 1466 1462 1458 1455 1451 1447 1443 1440 1437 1434
1513 1512 1504 1490 1480 1480 1484 1484 1479 1480 1480 1481 1482 1484 1484 1484 1485 1487 1489 1490 1490 1490 1489 1488 1487 1485 1484 1482 1480 1477 1475 1472 1469 1465 1461 1458 1454 1450 1446 1442 1438 1435 1431 1428
1510 1509 1510 1489 1474 1475 1480 1486 1474 1475 1477 1480 1482 1489 1484 1480 1482 1483 1485 1486 1486 1486 1485 1484 1483 1482 1480 1478 1476 1473 1470 1467 1464 1461 1457 1453 1449 1445 1441 1438 1433 1430 1426 1423
1506 1505 1497 1476 1473 1476 1491 1486 1468 1469 1472 1475 1477 1478 1477 1477 1478 1480 1481 1482 1482 1482 1481 1481 1479 1478 1476 1474 1471 1469 1466 1463 1460 1457 1453 1449 1445 1441 1437 1433 1429 1425 1421 1418
1505 1504 1496 1470 1472 1476 1472 1463 1464 1465 1466 1469 1470 1472 1474 1474 1475 1476 1477 1478 1478 1478 1477 1477 1475 1474 1471 1469 1467 1465 1462 1459 1456 1453 1449 1445 1441 1437 1433 1429 1424 1420 1416 1413
1489 1485 1470 1467 1464 1462 1462 1462 1461 1461 1462 1464 1466 1468 1469 1470 1471 1472 1473 1473 1474 1474 1473 1473 1471 1469 1467 1465 1463 1460 1458 1455 1451 1448 1445 1441 1437 1433 1429 1424 1420 1416 1412 1408
1480 1471 1464 1462 1461 1459 1458 1458 1458 1458 1459 1460 1461 1462 1464 1466 1467 1468 1468 1469 1470 1470 1469 1469 1467 1465 1463 1461 1459 1456 1453 1450 1447 1444 1441 1437 1434 1429 1425 1420 1416 1412 1408 1405
1475 1468 1462 1459 1458 1456 1455 1455 1455 1455 1455 1455 1456 1458 1459 1460 1462 1463 1464 1465 1466 1465 1465 1464 1463 1461 1459 1457 1454 1452 1449 1446 1443 1440 1437 1433 1430 1426 1421 1417 1413 1409 1405 1401
1474 1465 1465 1461 1458 1455 1453 1452 1451 1451 1450 1451 1452 1453 1454 1456 1457 1459 1460 1461 1462 1461 1461 1460 1459 1457 1455 1453 1450 1448 1445 1442 1439 1436 1433 1429 1426 1422 1418 1415 1410 1406 1402 1398
1467 1463 1462 1460 1456 1453 1451 1449 1448 1447 1447 1447 1447 1448 1450 1451 1453 1455 1456 1457 1457 1457 1457 1456 1454 1453 1451 1449 1447 1444 1441 1438 1435 1432 1429 1426 1422 1418 1414 1410 1407 1403 1399 1395
1463 1460 1459 1458 1456 1453 1450 1448 1446 1445 1445 1445 1445 1446 1447 1448 1450 1452 1453 1453 1454 1454 1453 1452 1450 1449 1447 1445 1443 1440 1438 1435 1432 1429 1426 1423 1419 1415 1411 1407 1402 1399 1396 1392
1466 1463 1463 1460 1456 1452 1449 1447 1445 1444 1444 1444 1444 1444 1445 1446 1448 1450 1451 1451 1451 1450 1449 1448 1446 1445 1444 1441 1439 1437 1434 1431 1429 1426 1423 1420 1417 1413 1409 1405 1400 1396 1393 1389
1470 1466 1463 1460 1457 1455 1452 1450 1449 1447 1446 1445 1444 1444 1445 1446 1447 1448 1448 1448 1447 1446 1445 1444 1442 1441 1439 1437 1435 1433 1430 1428 1425 1422 1419 1417 1414 1410 1406 1403 1398 1394 1390 1387
1470 1468 1466 1464 1462 1459 1457 1455 1453 1451 1449 1446 1445 1444 1444 1444 1445 1445 1445 1444 1443 1441 1440 1439 1437 1436 1435 1433 1431 1429 1426 1424 1422 1419 1416 1414 1411 1407 1404 1400 1396 1392 1388 1385
1476 1475 1473 1470 1467 1463 1460 1457 1455 1453 1450 1448 1446 1444 1443 1442 1442 1441 1441 1440 1438 1436 1434 1433 1432 1431 1429 1428 1426 1424 1422 1420 1418 1416 1413 1411 1408 1405 1401 1398 1394 1390 1386 1383
1477 1475 1473 1471 1468 1465 1462 1459 1456 1453 1450 1448 1445 1444 1442 1440 1439 1437 1436 1434 1432 1430 1428 1427 1426 1425 1424 1423 1421 1420 1418 1416 1414 1412 1410 1407 1405 1402 1399 1396 1392 1388 1385 1381
1477 1475 1473 1470 1467 1464 1461 1458 1455 1452 1449 1446 1444 1441 1439 1437 1435 1433 1430 1428 1426 1424 1422 1421 1419 1419 1418 1417 1416 1415 1413 1411 1410 1408 1406 1404 1402 1399 1397 1394 1391 1387 1384 1380
1476 1474 1471 1468 1465 1462 1460 1456 1453 1450 1448 1445 1442 1439 1436 1433 1431 1427 1424 1421 1419 1418 1415 1413 1412 1412 1411 1411 1410 1409 1408 1407 1406 1404 1403 1401 1399 1397 1395 1392 1389 1386 1383 1380
1474 1472 1469 1466 1463 1460 1457 1454 1451 1448 1446 1443 1440 1437 1433 1430 1426 1423 1419 1416 1413 1411 1408 1406 1405 1405 1405 1405 1404 1404 1403 1402 1401 1400 1399 1398 1396 1395 1393 1390 1388 1385 1382 1379
1472 1469 1466 1463 1460 1457 1454 1452 1449 1446 1443 1440 1437 1434 1430 1427 1423 1419 1414 1411 1407 1404 1402 1400 1399 1399 1399 1399 1399 1399 1398 1398 1397 1397 1396 1395 1393 1392 1391 1389 1387 1384 1382 1379
1468 1466 1463 1460 1457 1454 1451 1449 1446 1444 1441 1438 1435 1431 1427 1423 1418 1415 1410 1405 1401 1398 1396 1394 1393 1393 1393 1393 1394 1394 1394 1393 1393 1393 1392 1391 1391 1389 1388 1387 1385 1383 1381 1379
1464 1461 1459 1456 1453 1451 1448 1445 1443 1440 1437 1434 1431 1427 1423 1419 1414 1409 1405 1400 1396 1393 1390 1389 1388 1388 1388 1389 1389 1390 1390 1390 1390 1389 1389 1388 1388 1387 1386 1385 1383 1382 1380 1378
1459 1457 1454 1452 1449 1446 1444 1441 1438 1435 1432 1429 1425 1422 1418 1414 1409 1404 1399 1395 1391 1388 1386 1384 1384 1383 1384 1384 1385 1386 1386 1386 1386 1386 1386 1385 1385 1385 1384 1383 1382 1381 1379 1377
1453 1451 1449 1446 1444 1441 1439 1436 1433 1430 1427 1424 1420 1417 1413 1409 1404 1399 1394 1390 1386 1383 1381 1380 1380 1380 1381 1381 1382 1382 1383 1383 1383 1383 1383 1383 1382 1382 1382 1381 1381 1380 1379 1377